Regional Weather Roundup
Issued by NWS

Home | Current Version | Previous Version | Graphics & Text | Print | Product List | Glossary On
Versions: 1 2 3 4 5 6 7 8 9 10 11 12 13 14 15 16 17 18 19 20 21 22 23 24 25 26 27 28 29 30 31 32 33 34 35 36 37 38 39 40 41 42 43 44 45 46 47 48 49 50
000
ASUS43 KLSX 191207
RWRMO

WEATHER SUMMARY FOR MISSOURI
NATIONAL WEATHER SERVICE SPRINGFIELD MO
600 AM CST FRI DEC 19 2014

NOTE: "FAIR" INDICATES FEW OR NO CLOUDS BELOW 12,000 FEET WITH NO
       SIGNIFICANT WEATHER AND/OR OBSTRUCTIONS TO VISIBILITY.
       CURRENT SKY AND/OR WEATHER CONDITIONS ARE NOT AVAILABLE FOR
       CHILLICOTHE AND FARMINGTON.

MOZ001>031-035>038-043-044-053-054-191300-
...NORTHERN AND WESTERN MISSOURI...

CITY           SKY/WX    TMP DP  RH WIND       PRES   REMARKS
KANSAS CTY INT CLOUDY    30  29  96 NE3       30.24S FOG
6HR MIN TEMP:  30; 6HR MAX TEMP:  31;

KANSAS C DTWN  CLOUDY    33  30  88 N3        30.25S FOG
6HR MIN TEMP:  32; 6HR MAX TEMP:  33;

LEE`S SUMMIT   CLOUDY    31  29  92 CALM      30.24S
6HR MIN TEMP:  31; 6HR MAX TEMP:  32;

ST JOSEPH      CLOUDY    30  28  92 CALM      30.26S
6HR MIN TEMP:  30; 6HR MAX TEMP:  31;

CHILLICOTHE      N/A     31  27  85 CALM      30.28S
6HR MIN TEMP:  31; 6HR MAX TEMP:  31;

KIRKSVILLE     CLOUDY    29  26  89 CALM      30.27S
6HR MIN TEMP:  28; 6HR MAX TEMP:  29;


$$
MOZ066>068-077>081-088>096-101>105-191300-
...SOUTHWEST MISSOURI...

CITY           SKY/WX    TMP DP  RH WIND       PRES   REMARKS
SPRINGFIELD    CLOUDY    37  35  92 E3        30.19R
6HR MIN TEMP:  37; 6HR MAX TEMP:  38;

JOPLIN         CLOUDY    36  35  96 N3        30.23R FOG
6HR MIN TEMP:  35; 6HR MAX TEMP:  36;


$$
MOZ032>034-039>042-045>050-055>058-069>072-191300-
...CENTRAL MISSOURI...

CITY           SKY/WX    TMP DP  RH WIND       PRES   REMARKS
COLUMBIA       CLOUDY    32  30  92 E6        30.24F FOG     WCI  26
6HR MIN TEMP:  32; 6HR MAX TEMP:  32;

JEFFERSON CITY CLOUDY    33  31  92 E5        30.26S FOG     WCI  29
6HR MIN TEMP:  33; 6HR MAX TEMP:  34;

ROLLA          FOG       32  31  96 E7        30.22R VSB 1/4 WCI  26
6HR MIN TEMP:  32; 6HR MAX TEMP:  32;

SEDALIA        CLOUDY    33  32  96 E6        30.24F FOG     WCI  28
6HR MIN TEMP:  33; 6HR MAX TEMP:  34;

WHITEMAN AFB   FOG       32  32  97 NE6       30.23F VSB 1/4 WCI  27
WARRENSBURG    CLOUDY    32  32 100 N6        30.24F FOG     WCI  26
OSAGE BEACH    CLOUDY    34  32  93 E5        30.23R WCI  30

$$
MOZ051-052-059>065-191300-
...EAST CENTRAL MISSOURI...

CITY           SKY/WX    TMP DP  RH WIND       PRES   REMARKS
ST LOUIS INTL  MOCLDY    33  26  75 E5        30.28S WCI  29
6HR MIN TEMP:  33; 6HR MAX TEMP:  34;

SPIRIT OF STL  CLOUDY    33  28  81 NE3       30.27F
6HR MIN TEMP:  32; 6HR MAX TEMP:  34;

ST CHARLES     CLOUDY    31  27  85 NE8       30.28F WCI  23
6HR MIN TEMP:  31; 6HR MAX TEMP:  32;


$$
MOZ072>076-082>087-097>100-106>115-191300-
...SOUTH CENTRAL AND SOUTHEAST MISSOURI...

CITY           SKY/WX    TMP DP  RH WIND       PRES   REMARKS
CAPE GIRARDEAU CLOUDY    33  29  85 NE7       30.29R WCI  27
6HR MIN TEMP:  33; 6HR MAX TEMP:  36;

FARMINGTON     CLOUDY    32  28  86 CALM      30.28R
6HR MIN TEMP:  32; 6HR MAX TEMP:  34;

POPLAR BLUFF   CLOUDY    35  31  85 NE9       30.27R WCI  28
6HR MIN TEMP:  35; 6HR MAX TEMP:  36;

WEST PLAINS    FOG       34  33  96 E5        30.22R VSB 3/4 WCI  30
6HR MIN TEMP:  34; 6HR MAX TEMP:  36;


$$



USA.gov is the U.S. government's official web portal to all federal, state and local government web resources and services.